Date String (YYYY-MM-DD hh:mm:ss) UTC,Instrument flags,Ambient pressure (hPa),Sample flow (lpm),Bypass flow (lpm),Sample temperature (°C),Ambient temperature (°C),ASC tube jacket temperature (°C),LED temperature (°C),Box temperature (°C),Sample RH (%),Span deviation,Mass concentration (μg/m³),Mass concentration (μg/m³),Mass concentration (μg/m³)
DateTimeUTC,F1_M11,P_M11,Q1_M11,Q2_M11,T1_M11,T2_M11,T3_M11,T4_M11,T5_M11,U1_M11,ZSPAN_M11,X0_M11,X2_M11,X1_M11
2022-03-22 23:00:00,,0828.0,5.00,0.00,22.9,23.2,00.0,31.9,24.7,13.3,0000.0,0002.88,0000.84,0000.57
2022-03-22 23:01:00,,0828.1,5.01,0.00,23.1,23.8,00.0,32.0,25.0,13.3,0000.0,0002.24,0000.83,0000.57
2022-03-22 23:02:00,,0827.9,5.00,0.00,23.1,23.5,00.0,32.0,25.0,13.4,0000.0,0001.85,0000.83,0000.56
2022-03-22 23:03:00,,0828.0,4.99,0.00,23.1,23.2,00.0,32.0,24.9,13.4,0000.0,0001.82,0000.84,0000.56
2022-03-22 23:04:00,,0828.0,5.00,0.00,23.1,22.9,00.0,32.0,24.8,13.5,0000.0,0001.86,0000.84,0000.56
2022-03-22 23:05:00,,0828.1,5.00,0.00,23.0,22.7,00.0,32.0,24.8,13.5,0000.0,0001.76,0000.90,0000.56
2022-03-22 23:06:00,,0828.0,4.99,0.00,23.0,22.5,00.0,32.0,24.7,13.3,0000.0,0001.95,0000.96,0000.55
2022-03-22 23:07:00,,0828.1,5.01,0.00,23.0,22.4,00.0,32.0,24.7,13.1,0000.0,0002.03,0000.98,0000.54
2022-03-22 23:08:00,,0828.0,5.00,0.00,22.9,22.3,00.0,32.0,24.6,13.0,0000.0,0002.28,0000.99,0000.53
2022-03-22 23:09:00,,0828.0,4.99,0.00,22.9,22.1,00.0,32.0,24.5,12.8,0000.0,0002.81,0000.97,0000.51
2022-03-22 23:10:00,,0828.0,5.00,0.00,22.9,22.1,00.0,32.0,24.5,12.8,0000.0,0002.88,0000.97,0000.50
2022-03-22 23:11:00,,0828.0,5.02,0.00,22.8,22.0,00.0,31.9,24.4,13.0,0000.0,0002.92,0000.94,0000.49
2022-03-22 23:12:00,,0828.0,5.00,0.00,22.8,21.9,00.0,31.9,24.4,13.2,0000.0,0003.17,0000.97,0000.48
2022-03-22 23:13:00,,0828.0,5.00,0.00,22.8,21.8,00.0,31.9,24.3,13.2,0000.0,0003.66,0001.00,0000.47
2022-03-22 23:14:00,,0828.1,5.00,0.00,22.7,21.7,00.0,31.9,24.3,13.3,0000.0,0004.18,0001.02,0000.46
2022-03-22 23:15:00,,0828.0,4.99,0.00,22.7,21.7,00.0,31.9,24.2,13.2,0000.0,0004.21,0001.04,0000.45
2022-03-22 23:16:00,,0828.1,5.01,0.00,22.7,21.7,00.0,31.9,24.2,12.9,0000.0,0004.47,0001.02,0000.44
2022-03-22 23:17:00,,0828.1,5.00,0.00,22.6,21.6,00.0,31.8,24.2,12.9,0000.0,0005.53,0000.98,0000.43
2022-03-22 23:18:00,,0828.1,5.00,0.00,22.6,21.6,00.0,31.8,24.2,13.0,0000.0,0005.99,0000.98,0000.42
2022-03-22 23:19:00,,0828.1,5.00,0.00,22.6,21.6,00.0,31.8,24.2,12.9,0000.0,0005.89,0000.98,0000.43
2022-03-22 23:20:00,,0828.1,5.00,0.00,22.6,22.0,00.0,31.8,24.3,12.6,0000.0,0005.37,0001.02,0000.42
2022-03-22 23:21:00,,0828.2,5.00,0.00,22.8,23.0,00.0,31.8,24.6,12.4,0000.0,0005.28,0001.01,0000.43
2022-03-22 23:22:00,,0828.1,5.01,0.00,22.9,23.5,00.0,31.8,24.8,12.4,0000.0,0005.28,0000.99,0000.43
2022-03-22 23:23:00,,0828.1,5.00,0.00,23.0,23.3,00.0,31.8,24.9,12.4,0000.0,0005.28,0000.97,0000.43
2022-03-22 23:24:00,,0828.1,4.99,0.00,23.0,23.0,00.0,31.9,24.8,12.5,0000.0,0004.92,0000.93,0000.43
2022-03-22 23:25:00,,0828.1,5.01,0.00,23.0,22.8,00.0,31.9,24.7,12.4,0000.0,0004.71,0000.90,0000.42
2022-03-22 23:26:00,,0828.2,4.98,0.00,22.9,22.6,00.0,31.9,24.6,12.4,0000.0,0005.61,0000.88,0000.41
2022-03-22 23:27:00,,0828.1,5.01,0.00,22.9,22.4,00.0,31.9,24.6,12.4,0000.0,0005.82,0000.89,0000.42
2022-03-22 23:28:00,,0828.1,5.00,0.00,22.9,22.3,00.0,31.9,24.5,12.4,0000.0,0004.44,0000.88,0000.42
2022-03-22 23:29:00,,0828.1,5.00,0.00,22.9,22.1,00.0,31.9,24.5,12.2,0000.0,0004.02,0000.86,0000.42
2022-03-22 23:30:00,,0828.1,5.00,0.00,22.8,22.0,00.0,31.9,24.5,12.2,0000.0,0003.99,0000.87,0000.41
2022-03-22 23:31:00,,0828.1,5.00,0.00,22.8,22.0,00.0,31.8,24.4,12.2,0000.0,0003.87,0000.82,0000.41
2022-03-22 23:32:00,,0828.1,5.00,0.00,22.8,21.9,00.0,31.8,24.4,11.9,0000.0,0004.68,0000.84,0000.42
2022-03-22 23:33:00,,0828.1,5.00,0.00,22.7,21.8,00.0,31.8,24.4,12.0,0000.0,0005.07,0000.86,0000.41
2022-03-22 23:34:00,,0828.2,5.00,0.00,22.7,21.8,00.0,31.8,24.3,12.0,0000.0,0004.96,0000.88,0000.41
2022-03-22 23:35:00,,0828.5,5.01,0.00,22.7,21.8,00.0,31.8,24.3,12.1,0000.0,0004.85,0000.88,0000.42
2022-03-22 23:36:00,,0828.3,4.99,0.00,22.7,21.8,00.0,31.8,24.3,11.9,0000.0,0004.37,0000.85,0000.42
2022-03-22 23:37:00,,0828.3,5.00,0.00,22.7,21.8,00.0,31.8,24.3,11.7,0000.0,0003.48,0000.84,0000.43
2022-03-22 23:38:00,,0828.2,5.00,0.00,22.7,21.7,00.0,31.8,24.3,11.7,0000.0,0003.21,0000.83,0000.43
2022-03-22 23:39:00,,0828.3,5.00,0.00,22.6,21.7,00.0,31.8,24.2,11.8,0000.0,0004.80,0000.86,0000.43
2022-03-22 23:40:00,,0828.3,5.00,0.00,22.6,21.7,00.0,31.7,24.2,11.7,0000.0,0004.76,0000.86,0000.44
2022-03-22 23:41:00,,0828.2,5.00,0.00,22.6,21.7,00.0,31.7,24.2,11.5,0000.0,0004.79,0000.88,0000.45
2022-03-22 23:42:00,,0828.2,5.00,0.00,22.5,21.6,00.0,31.7,24.1,10.9,0000.0,0004.85,0000.91,0000.46
2022-03-22 23:43:00,,0828.3,5.00,0.00,22.5,21.6,00.0,31.7,24.1,10.4,0000.0,0004.12,0000.88,0000.45
2022-03-22 23:44:00,,0828.3,5.00,0.00,22.5,21.6,00.0,31.7,24.0,10.0,0000.0,0003.74,0000.85,0000.44
2022-03-22 23:45:00,,0828.3,5.00,0.00,22.5,21.6,00.0,31.6,24.0,09.8,0000.0,0003.73,0000.82,0000.43
2022-03-22 23:46:00,,0828.4,5.00,0.00,22.4,21.5,00.0,31.6,24.0,09.7,0000.0,0003.63,0000.78,0000.42
2022-03-22 23:47:00,,0828.4,5.00,0.00,22.4,21.5,00.0,31.6,24.0,09.7,0000.0,0003.73,0000.79,0000.42
2022-03-22 23:48:00,,0828.4,5.00,0.00,22.4,21.5,00.0,31.6,24.0,09.8,0000.0,0003.68,0000.75,0000.41
2022-03-22 23:49:00,,0828.5,5.00,0.00,22.4,21.5,00.0,31.6,24.0,09.7,0000.0,0003.44,0000.69,0000.39
2022-03-22 23:50:00,,0828.4,5.00,0.00,22.4,21.5,00.0,31.5,24.0,09.5,0000.0,0001.64,0000.64,0000.37
2022-03-22 23:51:00,,0828.9,5.00,0.00,22.3,21.5,00.0,31.5,24.0,09.6,0000.0,0001.52,0000.60,0000.35
2022-03-22 23:52:00,,0829.0,5.00,0.00,22.3,21.5,00.0,31.5,24.0,09.5,0000.0,0001.41,0000.56,0000.34
2022-03-22 23:53:00,,0828.9,4.99,0.00,22.3,21.5,00.0,31.5,23.9,09.5,0000.0,0001.31,0000.51,0000.32
2022-03-22 23:54:00,,0828.6,5.00,0.00,22.3,21.4,00.0,31.5,23.9,09.5,0000.0,0001.33,0000.51,0000.32
2022-03-22 23:55:00,,0828.6,5.00,0.00,22.3,21.4,00.0,31.4,23.9,09.5,0000.0,0001.08,0000.49,0000.31
2022-03-22 23:56:00,,0828.8,4.99,0.00,22.2,21.4,00.0,31.4,23.9,09.6,0000.0,0000.93,0000.47,0000.31
2022-03-22 23:57:00,,0828.8,5.00,0.00,22.2,21.4,00.0,31.4,23.8,09.4,0000.0,0000.93,0000.46,0000.30
2022-03-22 23:58:00,,0828.8,5.00,0.00,22.2,21.3,00.0,31.4,23.8,09.5,0000.0,0000.83,0000.44,0000.30
2022-03-22 23:59:00,,0828.9,4.99,0.00,22.2,21.3,00.0,31.4,23.7,09.7,0000.0,0000.78,0000.43,0000.29
